When you browse on this site, cookies collect data to enhance your experience and personalize the content and advertising you see.
Visit our Privacy Policy to learn more. By continuing to use the site, you agree to this use of cookies and data.
  • In Österreich
  • Länderverzeichnis
  • Für 7 Tage
  • Wassertemperatur
  • Wetterkarte
  • News
  • Widgets
  • user-avatar
    Anmelden

    Stündliche Wetter Molango

    Heute, 20 November, Mittwoch

    Zeit Temperatur Niederschläge Wind Luftdruck Luftfeuchtigkeit
    00:00 +11°C° 0 mm 0 m/S 609 mmHg 94%
    01:00 +11°C° 0 mm 0 m/S 609 mmHg 94%
    02:00 +10°C° 0 mm 0 m/S 608 mmHg 94%
    03:00 +10°C° 0 mm 0 m/S 609 mmHg 93%
    04:00 +10°C° 0 mm 0 m/S 609 mmHg 92%
    05:00 +10°C° 0 mm 0 m/S 609 mmHg 91%
    06:00 +12°C° 0 mm 0 m/S 610 mmHg 84%
    07:00 +14°C° 0 mm 0 m/S 611 mmHg 77%
    08:00 +16°C° 0 mm 0 m/S 612 mmHg 71%
    09:00 +19°C° 0 mm 1 m/S 612 mmHg 67%
    10:00 +21°C° 0 mm 1 m/S 612 mmHg 64%
    11:00 +21°C° 0 mm 2 m/S 612 mmHg 60%
    12:00 +21°C° 0 mm 2 m/S 612 mmHg 63%
    13:00 +20°C° 0 mm 2 m/S 611 mmHg 66%
    14:00 +20°C° 0 mm 2 m/S 610 mmHg 70%
    15:00 +18°C° 0.2 mm 2 m/S 610 mmHg 78%
    16:00 +18°C° 0.2 mm 1 m/S 609 mmHg 87%
    17:00 +15°C° 0.2 mm 1 m/S 609 mmHg 95%
    18:00 +15°C° 0 mm 1 m/S 609 mmHg 95%
    19:00 +13°C° 0 mm 0 m/S 610 mmHg 95%
    20:00 +13°C° 0 mm 0 m/S 610 mmHg 95%
    21:00 +13°C° 0 mm 0 m/S 610 mmHg 95%
    22:00 +12°C° 0 mm 0 m/S 610 mmHg 94%
    23:00 +12°C° 0 mm 0 m/S 610 mmHg 94%

    Morgen, 21 November, Donnerstag

    Zeit Temperatur Niederschläge Wind Luftdruck Luftfeuchtigkeit
    00:00 +12°C° 0 mm 0 m/S 609 mmHg 93%
    01:00 +12°C° 0 mm 0 m/S 609 mmHg 92%
    02:00 +12°C° 0 mm 0 m/S 609 mmHg 91%
    03:00 +12°C° 0 mm 0 m/S 609 mmHg 89%
    04:00 +12°C° 0 mm 0 m/S 609 mmHg 88%
    05:00 +11°C° 0 mm 0 m/S 609 mmHg 87%
    06:00 +13°C° 0 mm 0 m/S 610 mmHg 82%
    07:00 +15°C° 0 mm 0 m/S 611 mmHg 76%
    08:00 +16°C° 0 mm 0 m/S 612 mmHg 71%
    09:00 +20°C° 0 mm 1 m/S 612 mmHg 67%
    10:00 +21°C° 0 mm 1 m/S 612 mmHg 63%
    11:00 +21°C° 0 mm 2 m/S 612 mmHg 60%
    12:00 +21°C° 0 mm 2 m/S 612 mmHg 62%
    13:00 +21°C° 0 mm 2 m/S 611 mmHg 65%
    14:00 +21°C° 0 mm 2 m/S 610 mmHg 67%
    15:00 +19°C° 0 mm 2 m/S 610 mmHg 77%
    16:00 +18°C° 0 mm 1 m/S 609 mmHg 86%
    17:00 +15°C° 0 mm 1 m/S 609 mmHg 95%
    18:00 +14°C° 0 mm 0 m/S 609 mmHg 95%
    19:00 +14°C° 0 mm 0 m/S 610 mmHg 94%
    20:00 +14°C° 0 mm 0 m/S 610 mmHg 94%
    21:00 +13°C° 0 mm 0 m/S 609 mmHg 94%
    22:00 +13°C° 0 mm 0 m/S 609 mmHg 93%
    23:00 +12°C° 0 mm 0 m/S 609 mmHg 93%

    übermorgen, 22 November, Freitag

    Zeit Temperatur Niederschläge Wind Luftdruck Luftfeuchtigkeit
    00:00 +12°C° 0 mm 0 m/S 609 mmHg 91%
    01:00 +12°C° 0 mm 0 m/S 608 mmHg 89%
    02:00 +12°C° 0 mm 0 m/S 608 mmHg 88%
    03:00 +11°C° 0 mm 0 m/S 608 mmHg 87%
    04:00 +11°C° 0 mm 0 m/S 608 mmHg 86%
    05:00 +11°C° 0 mm 0 m/S 608 mmHg 85%
    06:00 +13°C° 0 mm 0 m/S 609 mmHg 79%
    07:00 +15°C° 0 mm 0 m/S 611 mmHg 72%
    08:00 +17°C° 0 mm 0 m/S 612 mmHg 65%
    09:00 +21°C° 0 mm 1 m/S 612 mmHg 60%
    10:00 +22°C° 0 mm 1 m/S 612 mmHg 55%
    11:00 +24°C° 0 mm 1 m/S 612 mmHg 50%
    12:00 +24°C° 0 mm 1 m/S 611 mmHg 53%
    13:00 +23°C° 0 mm 2 m/S 611 mmHg 56%
    14:00 +23°C° 0 mm 2 m/S 610 mmHg 59%
    15:00 +20°C° 0.1 mm 2 m/S 609 mmHg 70%
    16:00 +19°C° 0.1 mm 1 m/S 609 mmHg 82%
    17:00 +16°C° 0.1 mm 1 m/S 608 mmHg 93%
    18:00 +15°C° 0 mm 0 m/S 608 mmHg 93%
    19:00 +14°C° 0 mm 0 m/S 609 mmHg 93%
    20:00 +14°C° 0 mm 0 m/S 609 mmHg 93%
    21:00 +14°C° 0 mm 0 m/S 609 mmHg 92%
    22:00 +13°C° 0 mm 0 m/S 609 mmHg 92%
    23:00 +13°C° 0 mm 0 m/S 609 mmHg 91%

    23 November, Samstag

    Zeit Temperatur Niederschläge Wind Luftdruck Luftfeuchtigkeit
    00:00 +13°C° 0 mm 0 m/S 609 mmHg 92%
    01:00 +13°C° 0 mm 0 m/S 608 mmHg 92%
    02:00 +12°C° 0 mm 0 m/S 608 mmHg 92%
    03:00 +12°C° 0 mm 0 m/S 608 mmHg 92%
    04:00 +12°C° 0 mm 0 m/S 608 mmHg 92%
    05:00 +12°C° 0 mm 0 m/S 608 mmHg 92%
    06:00 +13°C° 0 mm 0 m/S 609 mmHg 87%
    07:00 +14°C° 0 mm 0 m/S 610 mmHg 83%
    08:00 +16°C° 0 mm 0 m/S 611 mmHg 78%
    09:00 +19°C° 0 mm 1 m/S 611 mmHg 74%
    10:00 +20°C° 0 mm 1 m/S 612 mmHg 70%
    11:00 +20°C° 0 mm 2 m/S 612 mmHg 66%
    12:00 +20°C° 0.2 mm 2 m/S 611 mmHg 71%
    13:00 +19°C° 0.2 mm 2 m/S 610 mmHg 76%
    14:00 +19°C° 0.2 mm 2 m/S 610 mmHg 81%
    15:00 +17°C° 0.3 mm 2 m/S 610 mmHg 86%
    16:00 +16°C° 0.3 mm 2 m/S 610 mmHg 91%
    17:00 +15°C° 0.3 mm 1 m/S 609 mmHg 96%
    18:00 +15°C° 0.2 mm 1 m/S 610 mmHg 97%
    19:00 +15°C° 0.2 mm 1 m/S 610 mmHg 97%
    20:00 +15°C° 0.2 mm 1 m/S 611 mmHg 97%
    21:00 +14°C° 0.1 mm 1 m/S 611 mmHg 96%
    22:00 +13°C° 0.1 mm 0 m/S 611 mmHg 96%
    23:00 +13°C° 0.1 mm 0 m/S 611 mmHg 96%

    24 November, Sonntag

    Zeit Temperatur Niederschläge Wind Luftdruck Luftfeuchtigkeit
    00:00 +13°C° 0 mm 0 m/S 610 mmHg 96%
    01:00 +13°C° 0 mm 0 m/S 610 mmHg 96%
    02:00 +12°C° 0 mm 0 m/S 610 mmHg 96%
    03:00 +12°C° 0.1 mm 0 m/S 610 mmHg 96%
    04:00 +12°C° 0.1 mm 0 m/S 610 mmHg 97%
    05:00 +12°C° 0.1 mm 0 m/S 610 mmHg 97%
    06:00 +13°C° 0.1 mm 0 m/S 611 mmHg 96%
    07:00 +13°C° 0.1 mm 0 m/S 611 mmHg 94%
    08:00 +14°C° 0.1 mm 1 m/S 612 mmHg 93%
    09:00 +15°C° 0.1 mm 1 m/S 612 mmHg 89%
    10:00 +16°C° 0.1 mm 1 m/S 612 mmHg 85%
    11:00 +18°C° 0.1 mm 1 m/S 612 mmHg 81%
    12:00 +18°C° 0.1 mm 1 m/S 611 mmHg 82%
    13:00 +17°C° 0.1 mm 2 m/S 610 mmHg 83%
    14:00 +17°C° 0.1 mm 2 m/S 610 mmHg 85%
    15:00 +16°C° 0.1 mm 2 m/S 609 mmHg 88%
    16:00 +15°C° 0.1 mm 1 m/S 609 mmHg 92%
    17:00 +14°C° 0.1 mm 1 m/S 609 mmHg 96%
    18:00 +14°C° 0 mm 1 m/S 609 mmHg 96%
    19:00 +14°C° 0 mm 1 m/S 610 mmHg 96%
    20:00 +13°C° 0 mm 0 m/S 610 mmHg 96%
    21:00 +13°C° 0 mm 0 m/S 610 mmHg 96%
    22:00 +13°C° 0 mm 0 m/S 610 mmHg 97%
    23:00 +13°C° 0 mm 0 m/S 609 mmHg 97%

    25 November, Montag

    Zeit Temperatur Niederschläge Wind Luftdruck Luftfeuchtigkeit
    00:00 +12°C° 0 mm 0 m/S 609 mmHg 97%
    01:00 +12°C° 0 mm 0 m/S 609 mmHg 97%
    02:00 +12°C° 0 mm 0 m/S 608 mmHg 97%
    03:00 +12°C° 0 mm 0 m/S 608 mmHg 96%
    04:00 +13°C° 0 mm 1 m/S 608 mmHg 95%
    05:00 +13°C° 0 mm 1 m/S 608 mmHg 94%
    06:00 +14°C° 0 mm 1 m/S 609 mmHg 89%
    07:00 +15°C° 0 mm 0 m/S 609 mmHg 83%
    08:00 +16°C° 0 mm 0 m/S 610 mmHg 77%
    09:00 +19°C° 0 mm 1 m/S 610 mmHg 72%
    10:00 +21°C° 0 mm 1 m/S 610 mmHg 67%
    11:00 +21°C° 0 mm 2 m/S 611 mmHg 61%
    12:00 +20°C° 0 mm 2 m/S 610 mmHg 67%
    13:00 +20°C° 0 mm 2 m/S 609 mmHg 73%
    14:00 +19°C° 0 mm 2 m/S 608 mmHg 79%
    15:00 +18°C° 0.1 mm 2 m/S 608 mmHg 84%
    16:00 +18°C° 0.1 mm 1 m/S 607 mmHg 90%
    17:00 +15°C° 0.1 mm 1 m/S 607 mmHg 95%
    18:00 +15°C° 0 mm 1 m/S 607 mmHg 95%
    19:00 +14°C° 0 mm 1 m/S 607 mmHg 96%
    20:00 +14°C° 0 mm 1 m/S 607 mmHg 96%
    21:00 +14°C° 0 mm 1 m/S 607 mmHg 94%
    22:00 +14°C° 0 mm 1 m/S 607 mmHg 92%
    23:00 +14°C° 0 mm 1 m/S 607 mmHg 91%
    Mehr zeigen